KOFP

Details ICAO KOFP
Name HANOVER CO MUNI
Region United States
Timezone America/New_York (UTC-4.0)
Plans Departing 4
Arriving 8
Stats Elevation 208 ft / 63 m (AMSL)
Location 37.708939° -77.436641°
Runways 1
Magnetic Variation 10.348° W
Sunrise 2017-09-26 11:02:21 UTC / 2017-09-26 07:02:21 Local
Sunset 2017-09-26 23:02:09 UTC / 2017-09-26 19:02:09 Local
Advertisement - Login to hide

Runways

ID Width Length Bearing (true) Bearing (mag) Surface Threshold Offset Overrun Length
16 100 ft / 30 m 5,406 ft / 1,648 m 149.81° 160.16° Asphalt 0 ft / 0 m 0 ft / 0 m
34 100 ft / 30 m 5,406 ft / 1,648 m 329.81° 340.16° Asphalt 0 ft / 0 m 0 ft / 0 m

Approach Navaids

Runway Type Ident Frequency Range Bearing (true) Bearing (mag) Slope Elevation
16 Localiser IOFP 109.70 MHz 18 nm / 33 km 150.00° 160.35° - 208 ft / 63 m (AMSL)
16 DME IOFP 109.70 MHz 18 nm / 33 km - - - 208 ft / 63 m (AMSL)

Map

Weather


0- 5 10 15 20 25 30 35+ Temperature / ° C

Clouds and Precipitation
Forecast for 2017-09-26 06:00 UTC. Updated 2 hours ago

Ground ~20,000 ft ~40,000 ft Winds

METAR

KOFP 260654Z AUTO 00000KT 10SM OVC009 21/20 A2998 RMK AO2 SLP149 T02110200

TAF

Not found

Frequencies

Recorded 119.02 MHz ASOS
Clearance 125.40 MHz POTOMAC CLNC DEL
Departure 134.70 MHz POTOMAC DEP
Unicom 122.70 MHz CTAF/UNICOM
Approach 134.70 MHz POTOMAC APP
Warning: Do not use this data for real-world aviation or navigation. No guarantee of current accuracy is given.